| time (UTC) | temp C | wind direction | speed KPH | gust KPH | rain 1hr cm | rain 24hr cm | rain mn cm | humidity % | barometer mb |
| 20260508114645 | 6 | 164 | 4.8 | 9.7 | 0.00 | 0.00 | 0.00 | 68 | 1016.7 |
| 20260508113045 | 6 | 185 | 3.2 | 11.3 | 0.00 | 0.00 | 0.00 | 66 | 1016.6 |
| 20260508111533 | 6 | 162 | 8.0 | 11.3 | 0.00 | 0.00 | 0.00 | 68 | 1016.5 |
| 20260508110036 | 6 | 164 | 4.8 | 9.7 | 0.00 | 0.00 | 0.00 | 69 | 1016.4 |
| 20260508104529 | 5 | 185 | 3.2 | 9.7 | 0.00 | 0.00 | 0.00 | 70 | 1016.4 |
| 20260508103107 | 5 | 173 | 3.2 | 8.0 | 0.00 | 0.00 | 0.00 | 73 | 1016.4 |
| 20260508100036 | 5 | 158 | 3.2 | 8.0 | 0.00 | 0.00 | 0.00 | 75 | 1016.4 |
| 20260508094534 | 4 | 160 | 3.2 | 11.3 | 0.00 | 0.00 | 0.00 | 74 | 1016.3 |
| 20260508093033 | 5 | 151 | 0.0 | 3.2 | 0.00 | 0.00 | 0.00 | 72 | 1016.3 |
| 20260508091535 | 5 | 158 | 4.8 | 8.0 | 0.00 | 0.00 | 0.00 | 71 | 1016.3 |
| 20260508090035 | 5 | 163 | 4.8 | 9.7 | 0.00 | 0.00 | 0.00 | 70 | 1016.4 |
| 20260508084608 | 6 | 158 | 1.6 | 6.4 | 0.00 | 0.00 | 0.00 | 66 | 1016.4 |
| 20260508083035 | 6 | 156 | 3.2 | 9.7 | 0.00 | 0.00 | 0.00 | 64 | 1016.4 |
| 20260508081535 | 7 | 156 | 6.4 | 9.7 | 0.00 | 0.00 | 0.00 | 63 | 1016.5 |
| 20260508080037 | 7 | 161 | 6.4 | 9.7 | 0.00 | 0.00 | 0.00 | 64 | 1016.4 |
| 20260508074537 | 6 | 169 | 4.8 | 9.7 | 0.00 | 0.00 | 0.00 | 65 | 1016.4 |
| 20260508073036 | 7 | 152 | 6.4 | 9.7 | 0.00 | 0.00 | 0.00 | 62 | 1016.6 |
| 20260508071533 | 7 | 159 | 8.0 | 9.7 | 0.00 | 0.00 | 0.00 | 61 | 1016.6 |
| 20260508070035 | 8 | 156 | 4.8 | 9.7 | 0.00 | 0.00 | 0.00 | 60 | 1016.6 |
| 20260508064534 | 8 | 154 | 8.0 | 11.3 | 0.00 | 0.00 | 0.00 | 59 | 1016.7 |
| 20260508063141 | 8 | 154 | 8.0 | 11.3 | 0.00 | 0.00 | 0.00 | 59 | 1016.7 |
| 20260508061536 | 8 | 156 | 8.0 | 12.9 | 0.00 | 0.00 | 0.00 | 58 | 1016.8 |
| 20260508060035 | 9 | 183 | 4.8 | 11.3 | 0.00 | 0.00 | 0.00 | 56 | 1016.9 |
| 20260508054536 | 9 | 274 | 3.2 | 8.0 | 0.00 | 0.00 | 0.00 | 55 | 1016.9 |
| 20260508053035 | 10 | 22 | 1.6 | 6.4 | 0.00 | 0.00 | 0.00 | 53 | 1016.9 |
| 20260508051534 | 10 | 340 | 3.2 | 9.7 | 0.00 | 0.00 | 0.00 | 51 | 1016.9 |
| 20260508044610 | 11 | 53 | 1.6 | 8.0 | 0.00 | 0.00 | 0.00 | 48 | 1016.9 |
| 20260508043034 | 11 | 22 | 3.2 | 8.0 | 0.00 | 0.00 | 0.00 | 45 | 1016.8 |
| 20260508041532 | 12 | 14 | 3.2 | 11.3 | 0.00 | 0.00 | 0.00 | 43 | 1016.7 |
| 20260508034537 | 13 | 13 | 3.2 | 11.3 | 0.00 | 0.00 | 0.00 | 39 | 1016.3 |
| 20260508033035 | 15 | 337 | 8.0 | 14.5 | 0.00 | 0.00 | 0.00 | 35 | 1016.1 |
| 20260508031537 | 16 | 332 | 9.7 | 17.7 | 0.00 | 0.00 | 0.00 | 35 | 1015.9 |
| 20260508030036 | 16 | 318 | 11.3 | 24.1 | 0.00 | 0.00 | 0.00 | 36 | 1015.9 |
| 20260508024534 | 17 | 325 | 11.3 | 20.9 | 0.00 | 0.00 | 0.00 | 35 | 1015.9 |
| 20260508023108 | 17 | 322 | 12.9 | 20.9 | 0.00 | 0.00 | 0.00 | 35 | 1015.7 |
| 20260508021533 | 18 | 321 | 11.3 | 20.9 | 0.00 | 0.00 | 0.00 | 35 | 1015.7 |
| 20260508014641 | 19 | 309 | 11.3 | 25.7 | 0.00 | 0.00 | 0.00 | 35 | 1015.6 |
| 20260508013034 | 20 | 306 | 11.3 | 25.7 | 0.00 | 0.00 | 0.00 | 34 | 1015.7 |
| 20260508011535 | 20 | 295 | 12.9 | 29.0 | 0.00 | 0.00 | 0.00 | 33 | 1015.7 |
| 20260508010036 | 20 | 299 | 12.9 | 24.1 | 0.00 | 0.00 | 0.00 | 31 | 1015.7 |
| 20260508004533 | 20 | 301 | 16.1 | 30.6 | 0.00 | 0.00 | 0.00 | 30 | 1015.6 |
| 20260508003043 | 21 | 292 | 11.3 | 24.1 | 0.00 | 0.00 | 0.00 | 30 | 1015.7 |
| 20260508001534 | 21 | 291 | 12.9 | 41.8 | 0.00 | 0.00 | 0.00 | 30 | 1015.6 |
| 20260508000038 | 21 | 292 | 11.3 | 22.5 | 0.00 | 0.00 | 0.00 | 30 | 1015.6 |
| 20260507234537 | 21 | 310 | 12.9 | 33.8 | 0.00 | 0.00 | 0.00 | 29 | 1015.6 |
| 20260507231533 | 21 | 302 | 14.5 | 29.0 | 0.00 | 0.00 | 0.00 | 29 | 1015.7 |
| 20260507230034 | 21 | 299 | 16.1 | 29.0 | 0.00 | 0.00 | 0.00 | 28 | 1015.8 |
| 20260507224610 | 21 | 283 | 12.9 | 27.4 | 0.00 | 0.00 | 0.00 | 29 | 1015.9 |
| 20260507223032 | 21 | 294 | 11.3 | 27.4 | 0.00 | 0.00 | 0.00 | 30 | 1016.1 |
| 20260507221535 | 21 | 305 | 9.7 | 24.1 | 0.00 | 0.00 | 0.00 | 30 | 1016.3 |
| 20260507220142 | 20 | 304 | 12.9 | 29.0 | 0.00 | 0.00 | 0.00 | 31 | 1016.5 |
| 20260507214534 | 20 | 325 | 14.5 | 29.0 | 0.00 | 0.00 | 0.00 | 32 | 1016.5 |
| 20260507213035 | 20 | 308 | 12.9 | 29.0 | 0.00 | 0.00 | 0.00 | 33 | 1016.6 |
| 20260507210032 | 20 | 296 | 14.5 | 35.4 | 0.00 | 0.00 | 0.00 | 34 | 1016.8 |
| 20260507204530 | 20 | 300 | 11.3 | 29.0 | 0.00 | 0.00 | 0.00 | 36 | 1016.9 |
| 20260507203034 | 20 | 302 | 12.9 | 27.4 | 0.00 | 0.00 | 0.00 | 37 | 1017.0 |
| 20260507201533 | 20 | 298 | 14.5 | 29.0 | 0.00 | 0.00 | 0.00 | 36 | 1017.1 |
| 20260507200033 | 20 | 303 | 14.5 | 27.4 | 0.00 | 0.00 | 0.00 | 35 | 1017.3 |
| 20260507194611 | 20 | 294 | 14.5 | 30.6 | 0.00 | 0.00 | 0.00 | 35 | 1017.3 |
| 20260507193036 | 19 | 277 | 14.5 | 27.4 | 0.00 | 0.00 | 0.00 | 35 | 1017.4 |
| 20260507191535 | 19 | 281 | 16.1 | 29.0 | 0.00 | 0.00 | 0.00 | 36 | 1017.5 |
| 20260507190034 | 18 | 288 | 17.7 | 29.0 | 0.00 | 0.00 | 0.00 | 36 | 1017.5 |
| 20260507184607 | 17 | 287 | 17.7 | 32.2 | 0.00 | 0.00 | 0.00 | 39 | 1017.8 |
| 20260507181652 | 17 | 286 | 17.7 | 32.2 | 0.00 | 0.00 | 0.00 | 39 | 1018.0 |
| 20260507180035 | 17 | 284 | 16.1 | 25.7 | 0.00 | 0.00 | 0.00 | 41 | 1018.2 |
| 20260507174536 | 17 | 283 | 14.5 | 25.7 | 0.00 | 0.00 | 0.00 | 42 | 1018.4 |
| 20260507171539 | 16 | 308 | 12.9 | 29.0 | 0.00 | 0.00 | 0.00 | 50 | 1018.5 |
| 20260507170109 | 15 | 331 | 16.1 | 27.4 | 0.00 | 0.00 | 0.00 | 53 | 1018.4 |
| 20260507164537 | 15 | 326 | 12.9 | 24.1 | 0.00 | 0.00 | 0.00 | 54 | 1018.5 |
| 20260507163037 | 15 | 326 | 12.9 | 25.7 | 0.00 | 0.00 | 0.00 | 56 | 1018.5 |
| 20260507161539 | 14 | 332 | 16.1 | 25.7 | 0.00 | 0.00 | 0.00 | 57 | 1018.5 |
| 20260507154535 | 13 | 328 | 16.1 | 27.4 | 0.00 | 0.00 | 0.00 | 58 | 1018.7 |
| 20260507153036 | 13 | 322 | 14.5 | 24.1 | 0.00 | 0.00 | 0.00 | 58 | 1018.7 |
| 20260507151542 | 13 | 311 | 11.3 | 25.7 | 0.00 | 0.00 | 0.00 | 58 | 1018.8 |
| 20260507150048 | 13 | 312 | 9.7 | 17.7 | 0.00 | 0.00 | 0.00 | 62 | 1018.9 |
| 20260507144610 | 13 | 328 | 8.0 | 19.3 | 0.00 | 0.00 | 0.00 | 63 | 1018.8 |
| 20260507143037 | 12 | 342 | 4.8 | 22.5 | 0.00 | 0.00 | 0.00 | 66 | 1018.9 |
| 20260507141535 | 11 | 330 | 6.4 | 20.9 | 0.00 | 0.00 | 0.00 | 69 | 1018.7 |
| 20260507140036 | 11 | 294 | 8.0 | 19.3 | 0.00 | 0.00 | 0.00 | 71 | 1018.6 |
| 20260507134537 | 10 | 311 | 9.7 | 16.1 | 0.00 | 0.00 | 0.00 | 73 | 1018.6 |
| 20260507133033 | 10 | 318 | 8.0 | 12.9 | 0.00 | 0.00 | 0.00 | 74 | 1018.6 |
| 20260507130035 | 11 | 333 | 4.8 | 11.3 | 0.00 | 0.00 | 0.00 | 74 | 1018.7 |
| 20260507124535 | 11 | 327 | 4.8 | 11.3 | 0.00 | 0.00 | 0.00 | 74 | 1018.7 |
| 20260507123035 | 11 | 340 | 4.8 | 11.3 | 0.00 | 0.00 | 0.00 | 72 | 1018.7 |
| 20260507121653 | 11 | 308 | 6.4 | 14.5 | 0.00 | 0.00 | 0.00 | 70 | 1018.5 |